Flag for Norway Weather past 2 weeks in Leirvik, Norway

Now
43 °F

Passing clouds.


Feels Like: 35 °F
Forecast: 36 / 40 °F
Wind: 15 mph from South

Location: Stord / Soerstokken

Current Time: Jan 28, 2015 at 7:42:23 AM

Latest Report: Jan 28, 2015 at 6:50 AM


Visibility: 4 mi

Pressure: 29.21 "Hg

Humidity: 93%

Dew point: 41 °F

Location of LeirvikLocation

Historic Weather in Leirvik — Graph

°F

Leirvik temperature yesterday

Maximum temperature yesterday: 45 °F (at 4:50 PM)
Minimum temperature yesterday: 36 °F (at 6:50 AM)
Average temperature yesterday: 39 °F

Past Weeks' High & Low Weather Summary

 TemperatureHumidityPressure
High45 °F (Jan 26, 4:50 AM)100% (Jan 18, 4:50 PM)30.21 "Hg (Jan 18, 4:50 PM)
Low30 °F (Jan 22, 5:50 AM)45% (Jan 21, 2:20 PM)28.65 "Hg (Jan 16, 8:50 AM)
Average38 °F79%29.65 "Hg
* Reported Jan 13 6:20 AM — Jan 28 6:20 AM, Leirvik, Weather by CustomWeather, © 2014

Note: Actual official high and low records may vary slightly from our data, if they occured in-between our weather recording intervals... More about our weather records

Advertising

Leirvik weather history for previous 24 hours

 ConditionsComfort  
Time TempWeatherWind HumidityBarometerVisibility
6:20 AM
Jan 28
43 °FPassing clouds.14 mph93%29.24 "Hg4 mi
5:50 AM43 °FRain showers. Partly cloudy.16 mph93%29.27 "Hg4 mi
7:20 PM
Jan 27
45 °FDrizzle. Fog.13 mph100%29.74 "Hg2 mi
6:50 PM45 °FDrizzle. Fog.14 mph100%29.74 "Hg3 mi
6:20 PM45 °FDrizzle. Fog.13 mph100%29.77 "Hg2 mi
5:20 PM45 °FDrizzle. Fog.14 mph100%29.77 "Hg2 mi
4:50 PM45 °FLight rain. Fog.13 mph100%29.80 "Hg2 mi
4:20 PM43 °FLight rain. Fog.9 mph100%29.80 "Hg2 mi
3:50 PM43 °FRain. Fog.8 mph93%29.83 "Hg1 mi
3:20 PM41 °FLight rain. Fog.10 mph100%29.83 "Hg1 mi
2:50 PM39 °FDrizzle. Fog.10 mph100%29.83 "Hg1 mi
2:20 PM39 °FDrizzle. Fog.12 mph100%29.83 "Hg1 mi
1:50 PM39 °FDrizzle. Fog.10 mph100%29.86 "Hg2 mi
1:20 PM39 °FDrizzle. Broken clouds.10 mph93%29.86 "Hg4 mi
12:50 PM37 °FDrizzle. Partly sunny.10 mph100%29.89 "Hg2 mi
12:20 PM37 °FDrizzle. Broken clouds.12 mph100%29.89 "Hg2 mi
11:50 AM37 °FDrizzle. Broken clouds.10 mph93%29.92 "Hg3 mi
11:20 AM37 °FDrizzle. Broken clouds.13 mph93%29.92 "Hg4 mi
10:50 AM37 °FDrizzle. Broken clouds.10 mph93%29.92 "HgN/A
10:20 AM37 °FDrizzle. Broken clouds.9 mph93%29.92 "HgN/A
9:20 AM36 °FBroken clouds.12 mph100%29.92 "HgN/A
8:50 AM36 °FPartly cloudy.10 mph93%29.92 "HgN/A
8:20 AM36 °FScattered showers. Partly cloudy.8 mph100%29.92 "HgN/A
7:50 AM36 °FPartly cloudy.8 mph100%29.92 "HgN/A
7:20 AM36 °FPartly cloudy.10 mph93%29.92 "HgN/A
Weather by CustomWeather, © 2014

See weather overviewHow to use our weather pages